Weather Service Report


579 
ASUS46 KPQR 160410
RWROR 

OREGON REGIONAL WEATHER ROUNDUP
NATIONAL WEATHER SERVICE PORTLAND OR
900 PM PDT SUN JUL 15 2018

NOTE: "FAIR" INDICATES FEW OR NO CLOUDS BELOW 12,000 FEET WITH
NO SIGNIFICANT WEATHER AND/OR OBSTRUCTIONS TO VISIBILITY.

ORZ001>013-160500-
NORTHWEST OREGON

  
CITY           SKY/WX    TMP DP  RH WIND       PRES   REMARKS
ASTORIA        CLEAR     61  56  83 S8        30.00R                  
TILLAMOOK      PTCLDY    61  55  82 CALM      30.02R                  
NEWPORT        CLOUDY    55  55 100 N5        30.03S FOG              
PORTLAND       PTCLDY    87  56  34 NW8       29.89R                  
VANCOUVER WA   PTCLDY    88  55  32 NW7       29.88R                  
SCAPPOOSE      PTCLDY    84  52  33 NW9       29.89R                  
HILLSBORO      PTCLDY    83  53  35 NW13      29.90R                  
AURORA         PTCLDY    87  57  35 NW5       29.91R                  
MCMINNVILLE    PTCLDY    78  53  41 SW12      29.90R                  
SALEM          PTCLDY    83  50  31 W9        29.91R                  
CORVALLIS      PTCLDY    78  55  44 NW13      29.93R                  
EUGENE         PTCLDY    81  58  45 NE5       29.93R                  
$$

ORZ021-028-160500-
SOUTHWEST OREGON

  
CITY           SKY/WX    TMP DP  RH WIND       PRES   REMARKS
NORTH BEND     CLOUDY    60  58  92 NW8       30.02R FOG              
BROOKINGS      PTCLDY    58  54  86 CALM      29.99R                  
ROSEBURG       CLEAR     88  51  28 N9        29.92R                  
SEXTON SUMMIT  PTCLDY    74  51  44 N10       30.11R                  
GRANTS PASS    FAIR      82  64  54 CALM      29.94R                  
MEDFORD        CLEAR     87  55  33 N6        29.91R                  
$$

ORZ014>016-041-160500-
COLUMBIA GORGE

  
CITY           SKY/WX    TMP DP  RH WIND       PRES   REMARKS
TROUTDALE      PTCLDY    86  57  37 W7        29.87R                  
HOOD RIVER     PTCLDY    82  54  36 CALM      29.89R                  
THE DALLES     CLEAR     91  52  26 N9        29.85R                  
$$

ORZ029>031-041-044-049-050-061>064-502-503-505>511-160500-
EASTERN OREGON

  
CITY           SKY/WX    TMP DP  RH WIND       PRES   REMARKS
MADRAS         PTCLDY    81  36  19 N8        30.03R                  
REDMOND        MOCLDY    87  44  22 NW12      30.06R                  
BEND           LGT RAIN  73  52  46 S21G30    30.09R                  
PRINEVILLE     CLOUDY    84  41  21 S12G18    30.07R                  
KLAMATH FALLS  MOCLDY    71  52  50 SE5       30.12R                  
LAKEVIEW       PTCLDY    61  56  83 N3        30.18F                  
HERMISTON      PTCLDY    82  38  20 CALM      29.87R                  
PENDLETON      PTCLDY    84  32  15 NE3       29.93R                  
JOHN DAY       CLOUDY    86  40  19 CALM      30.05R                  
MEACHAM        PTCLDY    69  44  40 CALM      30.10R HAZE             
LA GRANDE      PTCLDY    77  43  29 N10       30.01R                  
BAKER CITY     PTCLDY    70  52  52 W8        30.05R                  
BURNS          LGT RAIN  76  47  35 S18       30.13R                  
ROME             N/A     82  46  28 W23G32    30.11R                  
ONTARIO        PTCLDY    79  60  52 W5        29.93S                  
$$
  

Return to Home page


Western Regional Climate Center, wrcc@dri.edu